Location: Kernascl�den
(48.0062°N, 3.3198°W)
Time: 22:59:06
(UTC+00:00)

Lacrosse 5 - Pass Details

Date: 21 January 2021
Orbit: 715 x 724 km, 57.0° (Epoch: 03 March)

Event Time Altitude Azimuth Distance (km) Brightness Sun altitude
Rises 20:05:16 0° 299° (WNW) 3,122 6.1 -31.2°
Reaches altitude 10° 20:08:10 10° 283° (WNW) 2,198 5.2 -31.7°
Maximum altitude 20:11:49 20° 236° (WSW) 1,603 4.1 -32.3°
Enters shadow 20:13:19 18° 213° (SSW) 1,713 4.0 -32.5°
